Kekaha, HI

4:22 AM HST on February 07, 2016 (GMT -1000)
Barking Sands PMRF

Weather History for PHBK - July, 2013

Change the Weather History Date:

Monday, July 15, 2013

  Actual Average Record
Temperature  
Mean Temperature 76 °F -  
Max Temperature 82 °F 87 °F 92 °F (1968)
Min Temperature 69 °F 67 °F 63 °F (1976)
Cooling Degree Days 10    
Growing Degree Days 26 (Base 50)    
Moisture  
Dew Point 64 °F    
Average Humidity 68    
Maximum Humidity 87    
Minimum Humidity 47    
Precipitation  
Precipitation 0.02 in - - ()
Sea Level Pressure  
Sea Level Pressure 29.98 in    
Wind  
Wind Speed 5 mph (ENE)    
Max Wind Speed 13 mph    
Max Gust Speed -    
Visibility 10 miles    
Events Rain    
Averages and records for this station are not official NWS values.
T = Trace of Precipitation, MM = Missing Value Source: NWS Daily Summary

Daily Weather History Graph

Daily Weather History Graph

Search for Another Location

Airport or City:

Trip Planner

Search our weather history database for the weather conditions in past years. The results will help you decide how hot, cold, wet, or windy it might be!

Date:

Astronomy

Jul. 15, 2013 Rise Set
Actual Time 6:04 AM HST 7:25 PM HST
Civil Twilight 5:40 AM HST 7:50 PM HST
Nautical Twilight 5:10 AM HST 8:19 PM HST
Astronomical Twilight 4:40 AM HST 8:49 PM HST
Moon 12:36 PM HST (7/15) No Moon Set
Length of Visible Light 14h 10m
Length of Day
13h 20m
Waxing Crescent, 48% of the Moon is Illuminated
Jul 15
Waxing Crescent
Jul 15
First Quarter
Jul 22
Full
Jul 29
Last Quarter
Aug 6
New

Hourly Weather History & Observations

Time (HST) Temp. Heat Index Dew Point Humidity Pressure Visibility Wind Dir Wind Speed Gust Speed Precip Events Conditions
12:56 AM 71.1 °F - 60.1 °F 68% 29.98 in 10.0 mi East 4.6 mph - N/A   Clear
1:56 AM 70.0 °F - 60.1 °F 71% 29.97 in 10.0 mi East 4.6 mph - N/A   Partly Cloudy
2:56 AM 69.1 °F - 57.0 °F 65% 29.96 in 10.0 mi East 4.6 mph - N/A   Clear
3:56 AM 69.1 °F - 57.0 °F 65% 29.96 in 10.0 mi East 3.5 mph - N/A   Clear
4:56 AM 69.1 °F - 57.0 °F 65% 29.96 in 10.0 mi ENE 4.6 mph - N/A   Partly Cloudy
5:56 AM 69.1 °F - 59.0 °F 70% 29.96 in 10.0 mi East 5.8 mph - N/A   Clear
6:56 AM 73.0 °F - 60.1 °F 64% 29.98 in 10.0 mi ENE 5.8 mph - N/A   Clear
7:56 AM 78.1 °F - 64.0 °F 62% 29.99 in 10.0 mi Calm Calm - N/A   Clear
8:56 AM 82.0 °F 82.4 °F 60.1 °F 47% 29.98 in 10.0 mi SE 5.8 mph - N/A   Clear
9:56 AM 82.0 °F 83.8 °F 64.9 °F 56% 29.98 in 10.0 mi North 9.2 mph - N/A   Clear
10:56 AM 80.1 °F 81.9 °F 64.9 °F 60% 29.99 in 10.0 mi NW 5.8 mph - N/A   Overcast
11:56 AM 80.1 °F 81.7 °F 64.0 °F 58% 29.99 in 10.0 mi NNW 5.8 mph - N/A   Overcast
12:56 PM 82.0 °F 83.8 °F 64.9 °F 56% 29.97 in 10.0 mi NNW 12.7 mph - N/A   Mostly Cloudy
1:56 PM 81.0 °F 83.0 °F 66.0 °F 60% 29.97 in 10.0 mi NNW 9.2 mph - N/A   Overcast
2:56 PM 80.1 °F 82.3 °F 66.9 °F 64% 29.96 in 10.0 mi Calm Calm - 0.00 in Rain Light Rain
3:56 PM 80.1 °F 81.9 °F 64.9 °F 60% 29.96 in 10.0 mi NE 4.6 mph - 0.00 in   Overcast
4:56 PM 80.1 °F 82.7 °F 68.0 °F 67% 29.95 in 10.0 mi SSE 8.1 mph - 0.00 in   Mostly Cloudy
5:56 PM 75.9 °F - 69.1 °F 79% 29.97 in 7.0 mi SSE 5.8 mph - 0.02 in Rain Light Rain
6:56 PM 77.0 °F - 70.0 °F 79% 29.97 in 10.0 mi ENE 3.5 mph - 0.00 in   Overcast
7:56 PM 75.9 °F - 70.0 °F 82% 29.99 in 10.0 mi ESE 3.5 mph - 0.00 in Rain Light Rain
8:56 PM 73.9 °F - 70.0 °F 87% 30.01 in 10.0 mi Calm Calm - 0.00 in   Clear
9:56 PM 73.9 °F - 68.0 °F 82% 30.02 in 10.0 mi East 5.8 mph - N/A   Clear
10:56 PM 73.0 °F - 66.0 °F 79% 30.03 in 10.0 mi ENE 4.6 mph - N/A   Clear
11:56 PM 73.0 °F - 66.0 °F 79% 30.02 in 10.0 mi East 3.5 mph - N/A   Clear